Temp
15 15 15 16 16 16 16 17 17 17 17 17 18 18 19 19 20 21 20 20 21 21 22 21 21 22 22 24 23 22 25 27 27 27 25 25 25 24 24 24 24 23 24 22 19
15 15 15 16 16 16 16 16 17 17 17 17 18 18 19 19 20 21 21 21 21 21 21 22 23 23 25 25 24 24 25 24 24 22 22 25 25 25 25 25 24 23 22 20 19
15 15 15 16 16 16 16 17 17 17 17 17 18 18 19 20 20 21 21 21 21 21 21 23 23 24 25 25 25 20 21 23 20 19 20 23 25 25 25 26 25 24 21 20 20
15 15 15 16 16 16 17 17 17 17 17 17 18 18 19 20 25 20 21 21 21 21 21 22 23 25 26 27 25 24 23 21 22 20 19 21 25 25 25 25 25 24 22 21 21
15 15 15 16 16 17 17 17 17 17 17 18 18 19 19 20 22 21 22 21 21 21 22 23 24 25 27 26 26 26 24 21 22 22 21 22 24 25 24 24 24 23 22 22 22
15 15 16 16 16 17 17 18 18 18 18 18 18 18 18 24 20 21 21 21 20 21 22 23 25 25 26 26 27 25 24 23 22 22 22 23 25 24 25 23 23 23 23 22 22
15 15 16 16 17 17 18 18 18 19 19 18 18 19 18 20 20 21 20 20 20 21 23 22 23 24 25 27 24 24 24 23 22 21 21 21 23 23 25 23 23 23 23 23 23
15 16 16 17 17 18 18 19 19 19 19 19 19 19 22 20 20 21 20 20 21 20 22 22 22 24 26 25 25 26 26 24 22 22 21 21 22 21 24 24 23 24 23 23 22
15 16 16 17 17 18 19 19 19 20 20 20 20 19 23 21 21 21 20 22 21 20 21 21 23 25 25 27 27 26 27 25 22 22 21 21 21 21 21 24 23 22 24 23 23
15 15 16 17 18 18 19 19 19 20 20 20 20 20 22 23 21 21 20 21 22 22 22 23 24 26 27 28 27 27 26 26 25 22 22 23 23 19 20 23 25 24 24 24 23
15 16 16 17 18 18 19 19 20 19 20 21 22 22 23 22 21 21 21 22 22 24 26 25 26 26 28 28 28 26 26 26 24 22 23 24 23 20 19 19 24 25 23 24 24
16 16 16 17 18 19 19 20 18 19 22 20 20 21 21 22 23 22 21 24 24 25 25 25 26 28 27 27 27 27 26 26 23 22 22 23 23 23 21 20 22 25 21 24 25
16 16 16 17 18 18 19 18 19 18 23 23 22 23 23 22 24 23 23 24 25 25 26 27 27 26 26 26 26 27 27 27 25 22 22 23 24 23 21 20 20 22 22 22 24
15 16 16 17 18 18 18 19 20 19 25 25 25 24 23 23 25 23 23 24 25 25 25 26 26 25 26 26 27 26 27 26 24 24 25 23 26 24 23 21 21 21 22 20 24
15 16 16 16 18 18 18 19 20 18 24 26 26 23 24 25 25 24 23 24 25 25 25 26 25 25 26 26 27 27 26 26 25 25 24 24 24 28 25 22 22 22 22 22 24
15 15 16 16 17 18 19 19 19 24 23 25 26 26 26 25 25 24 24 24 24 25 26 26 25 26 27 26 26 26 25 25 25 24 24 27 25 28 25 24 23 21 22 23 24
15 15 16 16 17 19 19 19 24 24 25 25 26 26 26 26 26 26 25 25 26 24 25 26 26 27 26 26 26 26 26 25 25 25 26 26 25 27 28 27 26 24 22 23 24
16 16 17 17 17 18 19 23 23 25 26 26 26 26 26 26 26 26 26 26 26 26 26 25 25 26 26 26 26 26 27 27 25 27 27 24 25 28 28 27 26 24 23 24 24
16 16 17 18 18 18 19 23 25 25 26 26 26 26 25 26 26 26 26 26 26 26 25 25 25 27 26 27 27 26 24 28 27 28 26 28 27 28 29 27 27 26 24 24 24
16 15 16 18 18 18 22 22 25 25 25 26 25 26 25 25 25 25 25 25 25 25 25 26 24 26 26 26 26 26 27 26 26 24 25 27 27 27 27 27 27 26 23 22 23
15 17 16 17 17 19 23 24 24 24 24 25 26 25 25 25 25 25 25 25 25 25 25 26 25 25 26 25 27 25 25 26 27 27 25 25 27 27 26 25 27 25 24 22 21
14 20 16 17 20 22 24 24 22 25 24 25 26 26 25 25 25 25 25 25 23 24 25 25 25 25 26 27 27 27 27 28 26 25 27 27 22 25 25 25 26 25 21 21 20
14 16 15 15 21 22 23 23 23 25 25 25 25 26 25 25 24 24 24 23 22 24 24 25 25 24 25 27 26 26 26 26 27 27 17 25 25 25 24 25 24 24 22 20 21
11 19 16 16 20 22 23 23 23 23 25 25 26 25 25 24 24 24 24 23 22 23 20 21 24 24 24 24 21 24 24 25 26 26 26 26 27 27 23 22 23 22 22 20 19
12 18 15 19 21 22 23 24 23 23 23 24 24 25 25 24 24 23 24 24 23 20 21 23 22 24 24 25 24 23 23 24 25 25 24 27 26 26 22 19 21 21 21 21 21
12 14 14 16 18 21 18 22 23 24 23 24 24 25 25 24 24 24 24 23 23 23 23 24 22 23 23 24 24 23 23 23 24 24 24 25 25 23 20 18 21 22 20 20 20
9 10 11 17 19 20 22 22 23 23 23 24 24 25 24 25 24 23 23 23 23 23 23 22 23 22 22 24 23 23 24 24 24 24 24 24 24 23 22 17 16 21 21 20 19
Height
1530 1528 1527 1525 1523 1521 1520 1518 1517 1516 1515 1514 1513 1513 1512 1512 1512 1513 1514 1515 1514 1515 1517 1519 1521 1523 1524 1523 1523 1522 1519 1514 1515 1513 1524 1527 1529 1532 1534 1535 1537 1540 1540 1546 1551
1530 1528 1527 1525 1524 1522 1521 1519 1517 1516 1515 1514 1513 1512 1512 1511 1512 1512 1513 1512 1513 1515 1518 1520 1522 1523 1521 1521 1521 1522 1516 1520 1524 1527 1529 1526 1529 1532 1534 1535 1539 1541 1545 1549 1552
1531 1529 1527 1526 1524 1522 1521 1519 1518 1516 1515 1514 1513 1511 1511 1511 1512 1513 1511 1512 1513 1515 1518 1521 1521 1521 1520 1519 1521 1523 1526 1525 1530 1530 1532 1531 1530 1532 1533 1533 1536 1540 1545 1550 1553
1531 1529 1527 1526 1524 1523 1521 1520 1518 1517 1515 1514 1513 1511 1510 1511 1508 1511 1510 1511 1513 1516 1519 1520 1521 1520 1517 1514 1519 1523 1526 1529 1530 1532 1533 1535 1530 1532 1534 1535 1536 1542 1546 1550 1553
1531 1529 1527 1526 1524 1522 1521 1520 1519 1517 1515 1514 1512 1511 1511 1512 1513 1511 1510 1511 1514 1517 1520 1520 1520 1519 1514 1518 1518 1518 1525 1529 1530 1533 1535 1536 1532 1531 1535 1537 1539 1543 1548 1551 1553
1531 1529 1527 1525 1524 1522 1520 1519 1518 1516 1515 1513 1512 1511 1511 1510 1512 1511 1511 1513 1517 1519 1519 1520 1519 1520 1518 1518 1516 1520 1525 1528 1531 1531 1534 1534 1530 1533 1535 1539 1542 1545 1548 1552 1554
1530 1529 1527 1525 1523 1521 1519 1518 1516 1515 1514 1512 1511 1510 1511 1514 1512 1513 1514 1516 1516 1519 1519 1520 1521 1520 1519 1517 1521 1522 1526 1528 1531 1531 1534 1536 1533 1534 1534 1539 1542 1545 1548 1551 1555
1530 1528 1526 1524 1521 1519 1518 1517 1516 1514 1513 1512 1511 1511 1512 1513 1514 1514 1516 1516 1516 1516 1519 1519 1520 1520 1519 1521 1520 1519 1519 1524 1529 1531 1534 1536 1536 1537 1536 1538 1542 1545 1547 1551 1554
1530 1527 1525 1523 1520 1519 1517 1516 1514 1513 1513 1512 1512 1511 1513 1514 1515 1515 1516 1518 1517 1517 1518 1518 1521 1519 1520 1515 1515 1518 1514 1521 1531 1531 1533 1535 1536 1538 1540 1538 1541 1544 1546 1549 1553
1529 1526 1524 1522 1519 1518 1517 1515 1513 1513 1513 1512 1512 1515 1514 1514 1514 1514 1515 1518 1518 1518 1520 1521 1519 1516 1513 1511 1517 1513 1518 1519 1521 1530 1531 1530 1531 1540 1539 1538 1535 1540 1543 1547 1551
1527 1525 1523 1520 1519 1517 1516 1514 1516 1516 1512 1512 1512 1511 1512 1514 1514 1515 1515 1517 1517 1517 1511 1516 1513 1511 1505 1506 1507 1513 1515 1518 1523 1529 1527 1524 1527 1536 1537 1538 1535 1535 1542 1544 1548
1526 1523 1521 1520 1518 1518 1517 1518 1517 1518 1513 1511 1510 1511 1512 1513 1513 1515 1516 1515 1514 1509 1513 1515 1510 1501 1509 1512 1512 1511 1514 1516 1525 1529 1530 1526 1527 1526 1531 1534 1533 1532 1539 1541 1544
1524 1522 1520 1519 1518 1518 1517 1518 1515 1513 1511 1510 1510 1510 1511 1513 1509 1512 1515 1513 1510 1511 1509 1504 1502 1510 1512 1512 1514 1511 1511 1512 1520 1527 1527 1525 1520 1520 1527 1530 1533 1531 1534 1538 1540
1522 1520 1519 1518 1520 1517 1518 1516 1514 1512 1500 1506 1505 1508 1510 1509 1509 1512 1513 1513 1511 1507 1509 1504 1509 1512 1511 1511 1509 1513 1508 1512 1520 1525 1523 1522 1516 1510 1514 1523 1526 1528 1529 1533 1536
1521 1518 1518 1517 1517 1518 1517 1516 1514 1514 1512 1503 1504 1508 1508 1506 1507 1511 1513 1512 1506 1507 1510 1503 1508 1510 1511 1508 1507 1509 1509 1509 1515 1519 1523 1521 1524 1491 1503 1516 1514 1518 1520 1526 1530
1518 1516 1515 1515 1514 1515 1515 1515 1515 1512 1514 1500 1501 1502 1503 1504 1504 1508 1511 1511 1509 1507 1507 1502 1507 1507 1505 1508 1509 1509 1513 1514 1516 1521 1525 1501 1514 1490 1496 1498 1505 1514 1516 1519 1523
1515 1513 1512 1512 1515 1513 1515 1516 1509 1507 1497 1500 1497 1498 1497 1499 1502 1502 1505 1505 1502 1510 1507 1503 1503 1503 1507 1507 1508 1511 1509 1516 1524 1520 1515 1502 1510 1492 1483 1487 1492 1500 1507 1513 1518
1512 1509 1507 1508 1509 1511 1514 1512 1510 1491 1493 1495 1495 1496 1496 1498 1500 1500 1501 1500 1501 1501 1499 1502 1508 1499 1501 1501 1502 1506 1500 1503 1521 1506 1495 1505 1509 1483 1480 1482 1486 1495 1504 1508 1512
1508 1505 1504 1504 1506 1510 1513 1505 1493 1489 1489 1492 1495 1495 1496 1497 1499 1498 1498 1496 1498 1500 1505 1502 1502 1496 1499 1499 1501 1499 1512 1492 1496 1488 1504 1489 1488 1477 1476 1480 1483 1489 1497 1502 1506
1505 1503 1504 1501 1504 1508 1506 1497 1489 1491 1492 1494 1494 1493 1497 1495 1499 1497 1497 1498 1501 1504 1503 1499 1506 1493 1494 1501 1500 1499 1491 1504 1499 1522 1514 1487 1489 1488 1483 1481 1482 1487 1495 1501 1502
1503 1502 1499 1500 1504 1506 1496 1488 1490 1492 1494 1493 1491 1494 1493 1497 1496 1495 1495 1501 1503 1504 1504 1499 1500 1498 1497 1497 1490 1498 1500 1497 1486 1487 1505 1507 1486 1479 1484 1482 1478 1483 1490 1496 1501
1502 1498 1497 1499 1503 1496 1489 1491 1493 1488 1493 1492 1491 1490 1494 1497 1497 1497 1498 1497 1506 1505 1502 1501 1497 1500 1489 1486 1491 1488 1482 1479 1493 1501 1487 1482 1509 1484 1485 1481 1479 1483 1491 1495 1499
1503 1500 1497 1498 1491 1490 1488 1490 1489 1487 1488 1490 1490 1490 1494 1495 1501 1498 1498 1505 1507 1505 1503 1502 1501 1506 1495 1485 1489 1488 1485 1487 1482 1483 1536 1501 1491 1481 1484 1484 1485 1485 1489 1492 1496
1504 1494 1498 1499 1491 1484 1483 1485 1486 1489 1486 1488 1488 1491 1494 1496 1497 1499 1500 1503 1507 1506 1510 1509 1501 1501 1500 1493 1508 1494 1491 1489 1486 1487 1484 1483 1474 1473 1484 1488 1488 1488 1490 1493 1496
1504 1494 1495 1489 1488 1487 1482 1481 1483 1484 1487 1488 1490 1489 1490 1494 1495 1498 1497 1499 1505 1506 1506 1503 1503 1495 1492 1490 1493 1496 1493 1491 1487 1486 1491 1473 1482 1475 1490 1494 1492 1489 1490 1493 1495
1505 1501 1497 1493 1489 1485 1486 1482 1479 1479 1483 1484 1485 1484 1485 1490 1490 1493 1495 1499 1497 1501 1501 1499 1502 1496 1498 1489 1491 1492 1491 1497 1489 1487 1485 1482 1480 1485 1491 1493 1491 1486 1488 1491 1494
1504 1502 1502 1489 1485 1484 1479 1482 1480 1480 1482 1481 1482 1482 1484 1486 1489 1493 1494 1495 1497 1499 1496 1499 1494 1499 1498 1486 1488 1492 1488 1487 1487 1483 1485 1488 1486 1486 1488 1493 1492 1487 1487 1488 1490
Wind_Speed
11 11 11 10 10 10 9 8 7 6 6 5 5 5 5 5 6 5 4 5 9 9 10 8 9 8 6 3 0 1 4 6 6 9 7 10 8 5 3 13 9 4 8 19 22
12 12 11 10 10 10 10 9 8 7 6 5 5 5 4 4 3 2 5 5 9 10 10 10 12 10 7 3 1 2 3 5 4 7 3 7 8 8 8 12 10 11 15 21 20
11 11 11 10 9 9 9 9 9 8 7 6 5 4 4 2 4 3 3 6 10 10 8 9 11 10 6 4 4 3 2 11 6 10 4 1 7 5 8 8 9 17 23 20 19
11 11 11 11 10 9 9 8 8 8 8 8 7 4 3 4 2 1 2 9 12 10 7 9 12 9 6 4 5 3 8 6 9 7 8 3 6 5 9 5 7 19 22 20 18
10 10 11 11 10 9 8 8 9 9 8 8 7 5 3 2 4 0 2 11 10 10 8 10 13 7 4 3 4 4 11 5 10 10 12 11 8 4 12 2 15 22 19 17 17
11 11 11 11 10 8 7 8 9 9 9 8 7 5 1 5 5 8 9 9 8 7 8 9 8 5 4 2 2 6 8 5 5 7 10 12 8 8 12 13 17 21 20 17 16
11 12 12 11 11 9 8 9 10 11 8 7 7 3 1 4 8 9 8 7 6 6 8 8 7 8 3 6 4 12 8 5 3 7 7 6 11 9 14 16 18 19 18 18 15
12 12 12 12 11 10 9 10 12 9 6 7 5 7 4 8 7 6 6 4 2 5 6 8 5 6 3 3 6 8 6 3 4 6 5 5 8 5 10 17 18 18 18 19 17
13 13 13 12 12 9 8 11 10 6 4 5 4 3 9 3 1 5 5 2 3 6 5 7 7 5 7 9 7 5 3 1 3 5 4 8 6 5 3 14 19 19 19 20 18
14 14 13 12 10 7 8 10 6 2 3 2 2 4 5 5 3 3 8 7 4 9 7 8 9 9 8 9 8 5 5 2 1 5 8 13 6 5 5 15 19 23 20 21 20
13 13 13 12 8 4 8 5 3 1 3 4 2 2 6 3 5 3 10 8 7 8 8 10 10 13 13 9 3 2 2 3 4 4 5 9 11 13 6 8 20 22 20 21 22
14 13 12 10 4 1 4 3 4 4 3 2 2 4 5 4 6 7 12 10 8 8 5 8 13 7 4 6 9 8 8 4 4 5 5 7 11 7 17 14 19 23 22 22 23
14 13 11 9 2 1 1 2 10 8 5 4 3 2 3 7 2 10 13 5 7 7 10 9 4 8 10 9 9 10 11 4 7 6 6 7 13 14 12 20 18 24 24 28 24
15 13 10 7 1 2 2 6 10 5 5 7 7 5 5 4 5 6 10 6 6 6 6 6 9 9 11 11 10 11 8 8 6 5 5 5 5 10 15 19 20 24 25 31 28
15 14 10 6 5 3 6 5 7 3 4 6 7 4 4 5 8 8 8 7 7 7 8 7 10 9 8 10 10 8 2 8 9 7 7 9 7 6 16 16 23 26 30 31 33
15 14 10 8 7 8 6 5 4 6 2 7 5 6 8 6 5 9 9 6 0 4 6 3 3 5 8 2 8 3 5 5 3 4 10 12 8 11 11 23 22 30 31 33 36
15 14 13 9 4 11 7 3 6 8 6 7 5 6 4 5 6 8 9 9 5 8 8 8 13 9 8 9 7 13 11 8 8 8 10 4 7 15 6 10 20 25 34 34 35
16 14 12 10 11 14 7 8 8 3 9 5 4 9 5 6 4 6 8 7 5 5 3 6 11 13 12 15 10 14 15 11 6 9 5 3 7 3 4 6 17 23 28 30 32
17 13 9 10 14 16 11 10 7 8 6 7 8 10 6 6 3 7 8 2 2 6 7 4 6 4 5 6 11 11 9 12 12 9 8 8 9 14 6 8 14 22 24 24 35
16 6 6 10 18 15 10 13 4 3 5 6 8 5 6 6 7 5 7 3 5 0 6 2 7 3 8 6 8 11 5 8 9 8 13 10 5 3 13 10 9 17 22 20 27
10 5 5 12 20 12 10 11 6 9 5 7 5 5 2 2 6 5 3 7 2 3 3 5 5 7 7 12 11 9 11 9 9 9 8 8 2 5 11 12 8 12 18 19 22
3 4 4 19 13 17 12 6 4 12 8 6 4 2 2 1 5 5 3 2 3 3 4 4 6 9 11 7 5 13 14 12 10 16 12 12 10 5 9 12 4 4 9 18 22
6 3 8 9 8 10 8 10 7 11 11 10 10 7 4 3 3 4 4 5 3 3 4 2 8 8 13 11 9 8 7 9 10 7 9 15 5 7 10 10 4 7 7 9 15
4 4 5 12 12 11 15 14 11 9 8 8 7 8 8 7 5 3 5 5 3 4 2 4 13 13 13 9 1 6 4 5 10 10 11 15 18 3 10 11 8 5 7 13 19
3 1 5 8 14 12 9 10 15 10 11 10 9 14 13 7 6 7 5 5 7 4 5 6 12 13 11 10 9 11 5 4 7 6 7 13 10 10 7 6 13 6 10 12 18
4 4 4 9 7 14 11 11 14 13 8 11 12 16 12 11 6 3 6 5 7 7 7 6 8 7 12 11 12 11 9 13 1 1 6 7 11 7 9 7 8 3 4 11 14
4 4 3 1 6 10 14 16 14 14 11 15 12 12 14 13 3 1 2 1 1 7 5 5 7 7 13 7 14 16 17 13 9 6 3 8 12 9 7 7 7 4 1 3 4
Wind_Direction
28 25 21 21 20 18 15 8 2 354 345 331 314 302 289 283 283 279 279 223 198 177 163 175 175 180 185 205 193 275 227 161 179 146 135 144 135 121 110 140 135 140 145 147 150
25 22 20 21 20 20 18 18 16 13 5 349 330 317 310 304 294 283 234 208 182 170 171 178 178 175 193 201 126 339 218 78 55 86 48 156 164 143 150 148 142 124 126 144 152
19 16 14 13 15 18 20 21 22 20 17 5 343 334 333 338 137 133 199 192 173 163 171 182 179 184 196 188 108 293 60 143 139 146 154 30 185 169 168 187 160 154 146 152 155
9 8 7 5 7 10 11 13 13 8 6 5 356 352 358 124 160 196 193 188 174 156 157 172 180 188 212 170 136 120 133 145 148 143 98 206 239 181 198 351 152 154 150 155 159
358 357 357 359 357 356 357 2 3 3 0 1 6 8 103 190 88 153 148 169 153 170 179 181 187 186 189 157 178 133 151 139 166 162 173 205 222 217 191 153 148 153 159 161 161
351 349 348 350 348 339 335 345 350 350 347 347 353 356 102 174 118 115 107 138 161 162 184 185 196 195 148 98 304 116 135 127 169 214 215 213 215 201 174 158 153 160 167 167 165
349 345 344 343 338 328 324 336 340 337 339 346 353 18 132 88 130 122 122 137 158 179 187 193 188 206 158 143 111 133 118 123 101 153 146 221 206 208 166 165 165 169 172 172 172
347 343 342 338 332 327 322 333 332 332 337 2 43 99 71 134 128 127 134 117 117 179 175 193 187 203 252 138 143 199 182 221 89 169 164 260 151 69 168 177 170 179 176 178 178
345 344 342 336 332 327 327 332 332 336 354 7 71 88 111 126 144 199 180 167 135 157 167 176 179 214 196 213 188 200 263 115 137 214 148 213 146 125 204 200 172 199 187 188 184
339 339 340 337 336 334 342 329 337 10 352 64 75 187 147 112 136 144 173 151 139 146 139 168 199 208 213 218 227 168 216 189 59 146 199 209 203 174 197 220 205 198 195 192 189
332 335 337 338 339 359 4 18 350 80 347 322 352 325 120 118 123 153 162 159 149 189 192 189 208 210 200 220 11 246 231 279 110 158 214 232 238 194 192 229 220 200 195 199 194
327 331 333 335 332 56 29 29 34 330 286 232 240 236 218 198 155 136 157 182 197 188 189 184 223 173 131 208 221 223 229 196 109 162 235 212 244 233 207 218 232 210 188 210 194
322 324 329 331 246 192 106 353 353 351 252 150 194 202 167 182 152 155 179 173 207 190 206 234 132 134 200 194 221 231 254 234 300 175 225 270 243 212 220 213 220 223 202 204 203
323 316 323 332 191 239 242 330 350 348 234 135 168 149 165 203 140 164 195 213 200 218 198 229 139 199 212 230 235 243 214 255 214 226 285 208 297 196 194 204 212 209 204 208 207
324 311 311 304 249 206 227 318 340 315 234 129 126 152 185 252 129 170 191 201 220 169 225 141 194 197 214 230 220 269 248 239 226 250 291 208 260 271 182 205 206 212 207 204 204
320 309 297 293 250 221 220 314 313 233 179 150 146 179 199 188 160 147 185 218 255 198 221 264 181 241 251 181 240 123 199 197 219 257 254 260 226 279 188 225 211 212 213 212 205
316 304 289 267 220 209 207 243 219 246 128 164 169 198 198 153 160 189 187 193 217 203 196 186 211 204 232 219 200 205 203 207 216 212 252 92 247 257 271 241 224 205 207 210 207
317 304 277 249 218 187 189 225 230 215 198 138 181 170 197 168 148 181 195 188 201 276 271 244 182 195 192 236 211 214 236 251 236 258 228 130 250 269 6 288 208 200 209 211 211
323 311 278 231 198 187 210 220 211 187 157 182 171 201 163 167 268 208 222 276 71 234 292 207 220 125 199 205 238 175 235 266 292 258 281 250 242 262 310 253 215 199 200 216 217
327 303 232 201 182 179 221 241 198 205 171 216 219 243 209 168 224 222 180 119 144 338 288 70 272 139 152 194 210 270 8 213 225 265 259 244 234 307 338 336 227 211 204 220 214
324 259 253 191 174 199 216 211 206 184 196 211 195 169 179 207 268 222 165 123 178 118 280 317 268 135 179 208 242 179 229 230 303 230 278 252 82 25 333 319 251 209 217 205 197
297 235 229 163 190 208 222 212 204 177 186 201 253 192 220 186 211 215 230 17 103 356 289 33 300 283 267 113 301 278 281 265 228 225 236 278 220 102 358 343 247 205 196 200 199
309 264 190 177 213 201 196 215 219 187 191 190 202 210 179 168 200 247 214 105 152 269 331 9 271 273 244 188 196 231 210 266 289 289 178 267 297 73 24 16 314 236 165 199 191
301 218 173 212 251 260 201 212 197 203 209 203 207 189 186 195 200 176 219 152 179 258 175 254 262 259 278 342 34 263 198 258 260 252 243 233 264 176 32 338 324 263 198 184 197
256 343 333 196 220 229 225 220 211 183 216 205 200 220 204 208 206 223 236 191 196 168 226 254 255 258 258 271 267 202 331 308 281 295 281 280 318 346 351 328 304 290 209 206 207
301 322 318 287 253 222 209 209 221 201 201 200 229 212 214 225 226 310 233 242 254 177 237 226 267 276 263 248 241 240 186 262 247 270 257 289 279 51 322 335 276 232 215 223 223
307 304 297 256 228 221 219 224 227 232 220 239 219 236 206 225 238 238 238 295 283 263 240 263 275 245 261 264 244 235 248 232 250 251 321 335 349 335 306 338 357 12 150 237 218